Location: Grange Verzio
(44.5000°N, 6.9833°E)
Time: 17:51:07
(UTC+00:00)

Cosmos 2219 Rocket - Pass Details

Date: 27 September 2023
Orbit: 826 x 848 km, 71.0° (Epoch: 08 December)

Event Time Altitude Azimuth Distance (km) Brightness Sun altitude
Rises 17:53:49 0° 190° (S) 3,348 5.4 -6.7°
Reaches altitude 10° 17:56:17 10° 186° (S) 2,419 4.6 -7.1°
Maximum altitude 18:01:40 55° 110° (ESE) 991 2.3 -8.1°
Drops below altitude 10° 18:07:06 10° 34° (NNE) 2,443 4.3 -9.1°
Sets 18:09:36 0° 30° (NNE) 3,383 5.1 -9.5°
